Weather History for KTUP - September, 2013

Change the Weather History Date:

Saturday, September 28, 2013

  Actual Average Record
Temperature  
Mean Temperature 71 °F 70 °F  
Max Temperature 82 °F 81 °F 96 °F (1939)
Min Temperature 60 °F 58 °F 39 °F (1937)
Degree Days  
Heating Degree Days 0 1  
Month to date heating degree days 0 8  
Since 1 July heating degree days 0 8  
Cooling Degree Days 6 6  
Month to date cooling degree days 323 276  
Year to date cooling degree days 1918 1948  
Growing Degree Days 21 (Base 50)    
Moisture  
Dew Point 58 °F    
Average Humidity 66    
Maximum Humidity 90    
Minimum Humidity 42    
Precipitation  
Precipitation 0.00 in 0.14 in 2.51 in (1980)
Month to date precipitation 2.77 3.16  
Year to date precipitation 40.05 39.63  
Snow  
Snow 0.00 in 0.00 in 0.00 in (2002)
Month to date snowfall 0.0 0.0  
Since 1 July snowfall 0.0 0.0  
Since 1 September snowfall 0.0 0.0  
Snow Depth 0.00 in    
Sea Level Pressure  
Sea Level Pressure 30.09 in    
Wind  
Wind Speed 4 mph (South)    
Max Wind Speed 14 mph    
Max Gust Speed 17 mph    
Visibility 10 miles    
Events      
T = Trace of Precipitation, MM = Missing Value Source: NWS Daily Summary

Daily Weather History Graph

Daily Weather History Graph

Search for Another Location

Airport or City:

Trip Planner

Search our weather history database for the weather conditions in past years. The results will help you decide how hot, cold, wet, or windy it might be!

Date:

Astronomy

Sep. 28, 2013 Rise Set
Actual Time 6:47 AM CDT 6:43 PM CDT
Civil Twilight 6:22 AM CDT 7:08 PM CDT
Nautical Twilight 5:53 AM CDT 7:37 PM CDT
Astronomical Twilight 5:24 AM CDT 8:06 PM CDT
Moon 12:48 AM CDT 2:49 PM CDT
Length of Visible Light 12h 45m
Length of Day
11h 55m
Waning Crescent, 36% of the Moon is Illuminated
Sep 28
Waning Crescent
Oct 4
New
Oct 11
First Quarter
Oct 18
Full
Oct 26
Last Quarter

Hourly Weather History & Observations

Time (CDT) Temp. Heat Index Dew Point Humidity Pressure Visibility Wind Dir Wind Speed Gust Speed Precip Events Conditions
12:53 AM 68.0 °F - 60.1 °F 76% 30.06 in 10.0 mi Calm Calm - N/A   Clear
1:53 AM 66.9 °F - 59.0 °F 76% 30.06 in 10.0 mi South 4.6 mph - N/A   Clear
2:53 AM 64.9 °F - 59.0 °F 81% 30.06 in 10.0 mi SSE 3.5 mph - N/A   Clear
3:53 AM 64.0 °F - 59.0 °F 84% 30.06 in 10.0 mi Calm Calm - N/A   Clear
4:53 AM 61.0 °F - 57.9 °F 90% 30.07 in 10.0 mi Calm Calm - N/A   Clear
5:53 AM 62.1 °F - 57.0 °F 84% 30.10 in 10.0 mi Calm Calm - N/A   Clear
6:53 AM 60.1 °F - 55.9 °F 86% 30.12 in 10.0 mi Calm Calm - N/A   Clear
7:53 AM 63.0 °F - 57.0 °F 81% 30.13 in 10.0 mi SSE 4.6 mph - N/A   Clear
8:53 AM 68.0 °F - 57.9 °F 70% 30.15 in 10.0 mi South 6.9 mph - N/A   Clear
9:53 AM 72.0 °F - 57.0 °F 59% 30.15 in 10.0 mi South 11.5 mph - N/A   Clear
10:53 AM 75.0 °F - 57.0 °F 53% 30.15 in 10.0 mi South 8.1 mph - N/A   Clear
11:53 AM 79.0 °F - 57.0 °F 47% 30.15 in 10.0 mi South 10.4 mph - N/A   Clear
12:53 PM 79.0 °F - 57.0 °F 47% 30.12 in 10.0 mi South 8.1 mph - N/A   Clear
1:53 PM 80.1 °F 80.2 °F 55.9 °F 43% 30.10 in 10.0 mi South 10.4 mph - N/A   Clear
2:53 PM 81.0 °F 80.8 °F 55.9 °F 42% 30.08 in 10.0 mi Variable 3.5 mph - N/A   Partly Cloudy
3:53 PM 81.0 °F 80.8 °F 55.9 °F 42% 30.06 in 10.0 mi SSW 9.2 mph - N/A   Partly Cloudy
4:53 PM 80.1 °F 80.4 °F 57.0 °F 45% 30.05 in 10.0 mi South 8.1 mph - N/A   Clear
5:53 PM 78.1 °F - 57.0 °F 48% 30.04 in 10.0 mi South 8.1 mph - N/A   Clear
6:53 PM 75.0 °F - 57.0 °F 53% 30.05 in 10.0 mi Calm Calm - N/A   Clear
7:53 PM 69.1 °F - 60.1 °F 73% 30.06 in 10.0 mi Calm Calm - N/A   Clear
8:53 PM 68.0 °F - 59.0 °F 73% 30.07 in 10.0 mi SSE 5.8 mph - N/A   Clear
9:53 PM 64.9 °F - 59.0 °F 81% 30.07 in 10.0 mi Calm Calm - N/A   Clear
10:53 PM 64.0 °F - 59.0 °F 84% 30.08 in 10.0 mi Calm Calm - N/A   Clear
11:53 PM 62.1 °F - 57.9 °F 86% 30.08 in 10.0 mi Calm Calm - N/A   Clear